This is the latest recevied weather packets stored in our database for station/object IR3AS. If no packets are shown the sender has not sent any weather packets the latest 10 day(s).
| Time | Temp. | Humidity | Pressure | Rain* | Wind** | Luminosity | Snow |
|---|---|---|---|---|---|---|---|
| 1777013183 | 8.89° C | 16% | 859 hPa | 0 mm | - | - | - |
| 1777012883 | 9.44° C | 15% | 859.2 hPa | 0 mm | - | - | - |
| 1777012583 | 10° C | 15% | 859.3 hPa | 0 mm | - | - | - |
| 1777012283 | 9.44° C | 15% | 859.2 hPa | 0 mm | - | - | - |
| 1777011983 | 8.89° C | 16% | 859.1 hPa | 0 mm | - | - | - |
| 1777011683 | 8.89° C | 16% | 859.2 hPa | 0 mm | - | - | - |
| 1777011383 | 8.89° C | 15% | 859.3 hPa | 0 mm | - | - | - |
| 1777011084 | 8.89° C | 15% | 859 hPa | 0 mm | - | - | - |
| 1777010783 | 8.89° C | 16% | 859 hPa | 0 mm | - | - | - |
| 1777010483 | 9.44° C | 15% | 859 hPa | 0 mm | - | - | - |
| 1777010183 | 10.56° C | 14% | 858.7 hPa | 0 mm | - | - | - |
| 1777009883 | 11.11° C | 14% | 858.7 hPa | 0 mm | - | - | - |
| 1777009583 | 10.56° C | 14% | 858.8 hPa | 0 mm | - | - | - |
| 1777009283 | 9.44° C | 14% | 858.9 hPa | 0 mm | - | - | - |
| 1777008983 | 8.89° C | 14% | 859 hPa | 0 mm | - | - | - |
| 1777008683 | 8.33° C | 14% | 858.9 hPa | 0 mm | - | - | - |
| 1777008383 | 7.78° C | 14% | 858.7 hPa | 0 mm | - | - | - |
| 1777008083 | 7.78° C | 15% | 858.7 hPa | 0 mm | - | - | - |
| 1777007783 | 7.22° C | 15% | 858.6 hPa | 0 mm | - | - | - |
| 1777007483 | 6.67° C | 15% | 858.5 hPa | 0 mm | - | - | - |
| 1777007183 | 6.11° C | 15% | 858.3 hPa | 0 mm | - | - | - |
| 1777006883 | 5.56° C | 15% | 858.1 hPa | 0 mm | - | - | - |
| 1777006583 | 5.56° C | 14% | 858 hPa | 0 mm | - | - | - |
| 1777006283 | 5.56° C | 14% | 857.8 hPa | 0 mm | - | - | - |
| 1777005983 | 5.56° C | 14% | 857.5 hPa | 0 mm | - | - | - |
* Rain latest hour (hover to see other rain measurements)
** Current wind speed in m/s (hover to see current wind gust speed)